Flag for U.S.A. Weather past 2 weeks in West Covina, California, U.S.A.

Now
69 °F

Overcast.


Feels Like: 69 °F
Forecast: 53 / 69 °F
Wind: 6 mph from Southwest

Location: Fullerton Municipal Airport

Current Time: May 6, 2015 at 4:36:59 PM

Latest Report: May 6, 2015 at 3:53 PM


Visibility: 10 mi

Pressure: 29.83 "Hg

Humidity: 45%

Dew point: 47 °F

Location of West CovinaLocation

Historic Weather in West Covina — Graph

°F

West Covina temperature yesterday

Maximum temperature yesterday: 68 °F (at 12:53 PM)
Minimum temperature yesterday: 59 °F (at 12:53 AM)
Average temperature yesterday: 63 °F

Past Weeks' High & Low Weather Summary

 TemperatureHumidityPressure
High96 °F (Apr 29, 1:53 PM)83% (Apr 26, 2:53 AM)30.01 "Hg (Apr 26, 2:53 AM)
Low53 °F (Apr 26, 4:53 AM)9% (Apr 28, 1:53 PM)29.77 "Hg (Apr 30, 4:53 PM)
Average67 °F52%29.90 "Hg
* Reported Apr 21 2:53 PM — May 6 2:53 PM, West Covina, Weather by CustomWeather, © 2015

Note: Actual official high and low records may vary slightly from our data, if they occured in-between our weather recording intervals... More about our weather records

Advertising

West Covina weather history for previous 24 hours

 ConditionsComfort  
Time TempWeatherWind HumidityBarometerVisibility
2:53 PM
Wed, May 6
69 °FOvercast.6 mph45%29.85 "Hg10 mi
1:53 PM68 °FOvercast.6 mph47%29.85 "Hg10 mi
12:53 PM65 °FOvercast.8 mph54%29.88 "Hg10 mi
11:53 AM64 °FOvercast.6 mph56%29.89 "Hg10 mi
10:53 AM65 °FOvercast.5 mph52%29.89 "Hg10 mi
9:53 AM64 °FOvercast.5 mph58%29.89 "Hg10 mi
8:53 AM63 °FOvercast.3 mph54%29.89 "Hg10 mi
7:53 AM62 °FMore clouds than sun.No wind60%29.90 "Hg10 mi
6:53 AM61 °FOvercast.No wind65%29.89 "Hg10 mi
5:53 AM60 °FOvercast.No wind67%29.89 "Hg10 mi
4:53 AM61 °FOvercast.No wind65%29.89 "Hg10 mi
3:53 AM60 °FOvercast.No wind67%29.90 "Hg10 mi
2:53 AM60 °FOvercast.No wind67%29.91 "Hg10 mi
1:53 AM59 °FOvercast.No wind69%29.93 "Hg10 mi
12:53 AM59 °FClear.3 mph69%29.94 "Hg10 mi
11:53 PM
Tue, May 5
60 °FClear.No wind67%29.95 "Hg10 mi
10:53 PM60 °FClear.No wind65%29.95 "Hg10 mi
9:53 PM61 °FClear.No wind62%29.95 "Hg10 mi
8:53 PM62 °FClear.3 mph58%29.93 "Hg10 mi
7:53 PM62 °FSunny.6 mph56%29.92 "Hg10 mi
6:53 PM64 °FSunny.7 mph54%29.91 "Hg10 mi
5:53 PM65 °FSunny.6 mph51%29.92 "Hg10 mi
4:53 PM65 °FOvercast.9 mph49%29.93 "Hg10 mi
Weather by CustomWeather, © 2015

See weather overviewHow to use our weather pages